TimeCDT,TemperatureF,Dew PointF,Humidity,Sea Level PressureIn,VisibilityMPH,Wind Direction,Wind SpeedMPH,Gust SpeedMPH,PrecipitationIn,Events,Conditions,WindDirDegrees,DateUTC
12:15 AM,73.6,66.6,79,30.12,10.0,North,6.9,-,N/A,,Clear,10,2013-07-27 05:15:00
12:35 AM,72.9,66.6,81,30.12,10.0,North,5.8,-,N/A,,Clear,360,2013-07-27 05:35:00
12:55 AM,72.5,66.6,82,30.13,10.0,North,4.6,-,N/A,,Clear,350,2013-07-27 05:55:00
1:15 AM,71.2,66.4,85,30.13,10.0,North,5.8,-,N/A,,Clear,360,2013-07-27 06:15:00
1:35 AM,71.1,66.4,85,30.13,10.0,North,6.9,-,N/A,,Clear,360,2013-07-27 06:35:00
1:55 AM,70.5,66.4,87,30.12,10.0,North,5.8,-,N/A,,Clear,360,2013-07-27 06:55:00
2:15 AM,70.3,66.4,87,30.12,10.0,North,6.9,-,N/A,,Clear,10,2013-07-27 07:15:00
2:35 AM,70.3,66.4,87,30.11,10.0,North,6.9,-,N/A,,Clear,360,2013-07-27 07:35:00
2:55 AM,70.0,66.2,88,30.10,10.0,North,6.9,-,N/A,,Clear,360,2013-07-27 07:55:00
3:15 AM,69.8,66.2,88,30.09,10.0,North,5.8,-,N/A,,Clear,360,2013-07-27 08:15:00
3:35 AM,68.9,65.7,89,30.09,10.0,North,5.8,-,N/A,,Clear,10,2013-07-27 08:35:00
3:55 AM,68.5,65.3,89,30.09,10.0,North,5.8,-,N/A,,Clear,360,2013-07-27 08:55:00
4:15 AM,68.2,65.3,90,30.09,10.0,NNW,4.6,-,N/A,,Clear,330,2013-07-27 09:15:00
4:35 AM,68.0,65.3,91,30.08,10.0,North,4.6,-,N/A,,Clear,350,2013-07-27 09:35:00
4:55 AM,67.1,64.6,92,30.09,10.0,North,5.8,-,N/A,,Clear,350,2013-07-27 09:55:00
5:15 AM,67.8,65.3,92,30.09,10.0,NW,4.6,-,N/A,,Clear,320,2013-07-27 10:15:00
5:35 AM,67.3,64.8,92,30.09,10.0,NNW,5.8,-,N/A,,Clear,330,2013-07-27 10:35:00
5:55 AM,66.7,64.4,92,30.09,10.0,NNW,5.8,-,N/A,,Clear,340,2013-07-27 10:55:00
6:15 AM,67.1,64.6,92,30.09,10.0,North,4.6,-,N/A,,Clear,350,2013-07-27 11:15:00
6:35 AM,67.1,64.4,91,30.09,10.0,North,5.8,-,N/A,,Clear,360,2013-07-27 11:35:00
6:55 AM,67.1,64.4,91,30.10,10.0,North,4.6,-,N/A,,Clear,360,2013-07-27 11:55:00
7:15 AM,67.1,64.6,92,30.10,10.0,North,4.6,-,N/A,,Clear,360,2013-07-27 12:15:00
7:35 AM,68.0,65.3,91,30.10,10.0,North,5.8,-,N/A,,Clear,360,2013-07-27 12:35:00
7:55 AM,69.4,66.2,89,30.11,10.0,NNW,4.6,-,N/A,,Clear,330,2013-07-27 12:55:00
8:15 AM,70.7,66.6,87,30.11,10.0,North,4.6,-,N/A,,Clear,350,2013-07-27 13:15:00
8:35 AM,72.5,67.3,84,30.11,10.0,NNW,3.5,-,N/A,,Clear,340,2013-07-27 13:35:00
8:55 AM,74.5,68.0,80,30.11,10.0,Calm,Calm,-,N/A,,Clear,0,2013-07-27 13:55:00
9:15 AM,76.3,68.0,75,30.11,10.0,Calm,Calm,-,N/A,,Clear,0,2013-07-27 14:15:00
9:35 AM,78.4,67.1,68,30.11,10.0,Calm,Calm,-,N/A,,Clear,0,2013-07-27 14:35:00
9:55 AM,79.3,66.2,64,30.11,10.0,SE,3.5,-,N/A,,Clear,140,2013-07-27 14:55:00
10:15 AM,80.8,66.0,61,30.11,10.0,Calm,Calm,-,N/A,,Clear,0,2013-07-27 15:15:00
10:35 AM,81.5,65.7,58,30.11,10.0,ESE,5.8,-,N/A,,Clear,110,2013-07-27 15:35:00
10:55 AM,82.2,65.1,56,30.11,10.0,Calm,Calm,-,N/A,,Clear,0,2013-07-27 15:55:00
11:15 AM,83.7,64.2,52,30.11,10.0,Calm,Calm,-,N/A,,Clear,0,2013-07-27 16:15:00
11:35 AM,83.8,63.5,50,30.10,10.0,Calm,Calm,-,N/A,,Scattered Clouds,0,2013-07-27 16:35:00
11:55 AM,84.7,63.7,49,30.10,10.0,ESE,3.5,-,N/A,,Clear,120,2013-07-27 16:55:00
12:15 PM,85.1,61.2,44,30.09,10.0,South,4.6,-,N/A,,Clear,180,2013-07-27 17:15:00
12:35 PM,85.6,60.8,43,30.09,10.0,South,4.6,-,N/A,,Clear,190,2013-07-27 17:35:00
12:55 PM,86.4,61.0,42,30.09,10.0,SSW,5.8,-,N/A,,Clear,210,2013-07-27 17:55:00
1:15 PM,86.9,59.7,40,30.08,10.0,South,6.9,-,N/A,,Clear,190,2013-07-27 18:15:00
1:35 PM,88.0,59.4,38,30.08,10.0,South,5.8,-,N/A,,Clear,170,2013-07-27 18:35:00
1:55 PM,88.2,59.5,38,30.06,10.0,Calm,Calm,-,N/A,,Clear,0,2013-07-27 18:55:00
2:15 PM,88.7,59.4,37,30.06,10.0,SW,5.8,-,N/A,,Clear,220,2013-07-27 19:15:00
2:35 PM,89.6,59.0,36,30.05,10.0,SSE,9.2,-,N/A,,Clear,150,2013-07-27 19:35:00
2:55 PM,90.0,58.6,35,30.04,10.0,SSW,8.1,-,N/A,,Clear,200,2013-07-27 19:55:00
3:15 PM,90.5,57.7,33,30.03,10.0,ESE,9.2,-,N/A,,Clear,120,2013-07-27 20:15:00
3:35 PM,90.7,56.3,31,30.03,10.0,South,9.2,-,N/A,,Clear,180,2013-07-27 20:35:00
3:55 PM,90.7,57.7,33,30.02,10.0,South,11.5,-,N/A,,Clear,170,2013-07-27 20:55:00
4:15 PM,91.8,58.5,33,30.01,10.0,South,12.7,-,N/A,,Clear,170,2013-07-27 21:15:00
4:35 PM,91.6,57.6,32,30.00,10.0,SSE,11.5,-,N/A,,Clear,160,2013-07-27 21:35:00
4:55 PM,92.1,56.7,30,30.00,10.0,South,10.4,17.3,N/A,,Clear,180,2013-07-27 21:55:00
5:15 PM,92.1,55.9,29,29.99,10.0,SSE,11.5,17.3,N/A,,Clear,150,2013-07-27 22:15:00
5:35 PM,91.4,57.4,32,29.98,10.0,SSE,10.4,-,N/A,,Clear,160,2013-07-27 22:35:00
5:55 PM,91.9,58.6,33,29.98,10.0,South,13.8,-,N/A,,Clear,190,2013-07-27 22:55:00
6:15 PM,91.2,58.3,33,29.97,10.0,SSE,12.7,17.3,N/A,,Clear,150,2013-07-27 23:15:00
6:35 PM,90.9,58.5,33,29.96,10.0,South,12.7,-,N/A,,Clear,170,2013-07-27 23:35:00
6:55 PM,90.5,58.1,33,29.95,10.0,South,12.7,-,N/A,,Clear,180,2013-07-27 23:55:00
7:15 PM,90.7,57.7,33,29.95,10.0,South,15.0,19.6,N/A,,Clear,170,2013-07-28 00:15:00
7:35 PM,90.1,57.6,33,29.94,10.0,South,15.0,-,N/A,,Clear,180,2013-07-28 00:35:00
7:55 PM,89.4,57.0,33,29.94,10.0,South,15.0,-,N/A,,Clear,180,2013-07-28 00:55:00
8:15 PM,88.5,56.7,34,29.95,10.0,South,10.4,-,N/A,,Clear,190,2013-07-28 01:15:00
8:35 PM,87.3,57.6,36,29.96,10.0,SSE,6.9,-,N/A,,Clear,160,2013-07-28 01:35:00
8:55 PM,84.9,59.4,42,29.97,10.0,SE,5.8,-,N/A,,Clear,140,2013-07-28 01:55:00
9:15 PM,83.3,61.3,47,29.97,10.0,SE,9.2,-,N/A,,Clear,130,2013-07-28 02:15:00
9:35 PM,81.5,62.6,53,29.98,10.0,SE,9.2,-,N/A,,Clear,130,2013-07-28 02:35:00
9:55 PM,81.1,63.1,54,29.98,10.0,SE,11.5,16.1,N/A,,Clear,140,2013-07-28 02:55:00
10:15 PM,80.2,63.1,56,29.99,10.0,SE,10.4,-,N/A,,Clear,130,2013-07-28 03:15:00
10:35 PM,79.3,63.5,58,29.99,10.0,SE,11.5,-,N/A,,Clear,130,2013-07-28 03:35:00
10:55 PM,78.8,63.5,59,29.99,10.0,SE,12.7,-,N/A,,Clear,140,2013-07-28 03:55:00
11:15 PM,78.3,63.9,61,29.99,10.0,SE,12.7,-,N/A,,Clear,140,2013-07-28 04:15:00
11:35 PM,77.9,64.4,63,30.00,10.0,SE,12.7,-,N/A,,Clear,140,2013-07-28 04:35:00
11:55 PM,77.2,64.4,65,30.01,10.0,SE,10.4,-,N/A,,Clear,140,2013-07-28 04:55:00